Вернуться в каталог

STARLINK-31581

АктивенСвязьVLEO
NORAD 59474·PAYLOAD·🇺🇸 United States

Запущен Apr 10, 2024 с Cape Canaveral Space Force Station

Loading…

Ближайшие Пролёты (ближайшие 24 часа)

TLE

СвежийSource: CelesTrak SupGP

Эпоха: Sep 15, 2026, 02:23 UTC

1 59474C 24068V   26258.09979167 -.00025914  00000+0 -93859-3 0  2587
2 59474  43.0039  37.7146 0001391 267.6235  55.8632 15.27591399    14

Отслеживайте STARLINK-31581 в реальном времени с AllMySat

Download on the App Store